When you browse on this site, cookies collect data to enhance your experience and personalize the content and advertising you see.
Visit our Privacy Policy to learn more. By continuing to use the site, you agree to this use of cookies and data.
  • In Hungary
  • List of Countries
  • For 7 days
  • Water Temperature
  • Weather Map
  • News
  • Weather Widgets
  • user-avatar
    Login

    Hourly Weather Obuhovo

    Today, 24 August, Saturday

    Time Temperature Precipitation Wind Pressure Humidity
    00:00 +13°C° 0 mm 1 mps 749 mmHg 89%
    01:00 +12°C° 0 mm 1 mps 749 mmHg 90%
    02:00 +12°C° 0 mm 1 mps 749 mmHg 91%
    03:00 +12°C° 0 mm 1 mps 749 mmHg 91%
    04:00 +12°C° 0 mm 1 mps 749 mmHg 92%
    05:00 +12°C° 0 mm 1 mps 749 mmHg 93%
    06:00 +13°C° 0 mm 2 mps 749 mmHg 87%
    07:00 +15°C° 0 mm 2 mps 748 mmHg 82%
    08:00 +17°C° 0 mm 2 mps 749 mmHg 75%
    09:00 +19°C° 0 mm 3 mps 749 mmHg 69%
    10:00 +20°C° 0 mm 3 mps 748 mmHg 64%
    11:00 +21°C° 0 mm 4 mps 748 mmHg 59%
    12:00 +22°C° 0 mm 4 mps 748 mmHg 58%
    13:00 +22°C° 0 mm 4 mps 748 mmHg 57%
    14:00 +23°C° 0 mm 4 mps 747 mmHg 55%
    15:00 +22°C° 0 mm 4 mps 747 mmHg 60%
    16:00 +22°C° 0 mm 3 mps 747 mmHg 64%
    17:00 +21°C° 0 mm 3 mps 747 mmHg 68%
    18:00 +19°C° 0 mm 2 mps 747 mmHg 75%
    19:00 +18°C° 0 mm 2 mps 747 mmHg 81%
    20:00 +16°C° 0 mm 2 mps 747 mmHg 88%
    21:00 +15°C° 0 mm 2 mps 747 mmHg 90%
    22:00 +15°C° 0 mm 2 mps 747 mmHg 93%
    23:00 +14°C° 0 mm 1 mps 747 mmHg 95%

    Tomorrow, 25 August, Sunday

    Time Temperature Precipitation Wind Pressure Humidity
    00:00 +14°C° 0 mm 1 mps 748 mmHg 95%
    01:00 +13°C° 0 mm 1 mps 748 mmHg 95%
    02:00 +13°C° 0 mm 1 mps 748 mmHg 95%
    03:00 +13°C° 0 mm 1 mps 748 mmHg 95%
    04:00 +12°C° 0 mm 1 mps 748 mmHg 95%
    05:00 +12°C° 0 mm 1 mps 748 mmHg 95%
    06:00 +13°C° 0 mm 1 mps 749 mmHg 89%
    07:00 +15°C° 0 mm 2 mps 749 mmHg 83%
    08:00 +16°C° 0 mm 2 mps 749 mmHg 77%
    09:00 +18°C° 0 mm 2 mps 749 mmHg 70%
    10:00 +19°C° 0 mm 2 mps 750 mmHg 62%
    11:00 +20°C° 0 mm 2 mps 750 mmHg 55%
    12:00 +21°C° 0 mm 2 mps 750 mmHg 53%
    13:00 +21°C° 0 mm 2 mps 750 mmHg 51%
    14:00 +23°C° 0 mm 2 mps 750 mmHg 49%
    15:00 +22°C° 0 mm 1 mps 750 mmHg 54%
    16:00 +22°C° 0 mm 1 mps 750 mmHg 59%
    17:00 +22°C° 0 mm 1 mps 750 mmHg 65%
    18:00 +19°C° 0 mm 1 mps 750 mmHg 71%
    19:00 +16°C° 0 mm 1 mps 750 mmHg 77%
    20:00 +14°C° 0 mm 1 mps 750 mmHg 82%
    21:00 +14°C° 0 mm 1 mps 750 mmHg 85%
    22:00 +13°C° 0 mm 1 mps 750 mmHg 87%
    23:00 +13°C° 0 mm 1 mps 750 mmHg 89%

    Day after tomorrow, 26 August, Monday

    Time Temperature Precipitation Wind Pressure Humidity
    00:00 +12°C° 0 mm 1 mps 750 mmHg 90%
    01:00 +12°C° 0 mm 1 mps 750 mmHg 91%
    02:00 +12°C° 0 mm 1 mps 750 mmHg 92%
    03:00 +11°C° 0 mm 1 mps 750 mmHg 93%
    04:00 +11°C° 0 mm 1 mps 750 mmHg 93%
    05:00 +11°C° 0 mm 1 mps 750 mmHg 94%
    06:00 +13°C° 0 mm 1 mps 750 mmHg 87%
    07:00 +15°C° 0 mm 1 mps 750 mmHg 79%
    08:00 +18°C° 0 mm 1 mps 750 mmHg 72%
    09:00 +19°C° 0 mm 1 mps 750 mmHg 67%
    10:00 +21°C° 0 mm 1 mps 750 mmHg 62%
    11:00 +22°C° 0 mm 1 mps 750 mmHg 56%
    12:00 +23°C° 0 mm 2 mps 749 mmHg 55%
    13:00 +23°C° 0 mm 2 mps 749 mmHg 54%
    14:00 +24°C° 0 mm 2 mps 749 mmHg 53%
    15:00 +23°C° 0 mm 2 mps 748 mmHg 58%
    16:00 +23°C° 0 mm 2 mps 748 mmHg 63%
    17:00 +21°C° 0 mm 2 mps 748 mmHg 68%
    18:00 +19°C° 0 mm 2 mps 747 mmHg 75%
    19:00 +17°C° 0 mm 2 mps 747 mmHg 81%
    20:00 +16°C° 0 mm 2 mps 747 mmHg 88%
    21:00 +15°C° 0 mm 2 mps 747 mmHg 89%
    22:00 +15°C° 0 mm 2 mps 747 mmHg 91%
    23:00 +14°C° 0 mm 2 mps 747 mmHg 92%

    27 August, Tuesday

    Time Temperature Precipitation Wind Pressure Humidity
    00:00 +14°C° 0 mm 2 mps 746 mmHg 93%
    01:00 +14°C° 0 mm 2 mps 746 mmHg 93%
    02:00 +14°C° 0 mm 2 mps 746 mmHg 93%
    03:00 +14°C° 0 mm 2 mps 745 mmHg 94%
    04:00 +14°C° 0 mm 2 mps 745 mmHg 95%
    05:00 +14°C° 0 mm 2 mps 745 mmHg 95%
    06:00 +14°C° 0.1 mm 3 mps 745 mmHg 92%
    07:00 +16°C° 0.1 mm 3 mps 745 mmHg 90%
    08:00 +18°C° 0.1 mm 3 mps 745 mmHg 87%
    09:00 +19°C° 0 mm 3 mps 745 mmHg 80%
    10:00 +20°C° 0 mm 4 mps 745 mmHg 73%
    11:00 +22°C° 0 mm 4 mps 745 mmHg 66%
    12:00 +21°C° 0.2 mm 4 mps 745 mmHg 67%
    13:00 +21°C° 0.2 mm 4 mps 745 mmHg 68%
    14:00 +21°C° 0.2 mm 4 mps 745 mmHg 69%
    15:00 +20°C° 0 mm 4 mps 745 mmHg 69%
    16:00 +20°C° 0 mm 3 mps 745 mmHg 68%
    17:00 +20°C° 0 mm 3 mps 745 mmHg 68%
    18:00 +18°C° 0 mm 3 mps 745 mmHg 73%
    19:00 +16°C° 0 mm 3 mps 745 mmHg 78%
    20:00 +15°C° 0 mm 2 mps 745 mmHg 83%
    21:00 +14°C° 0 mm 2 mps 746 mmHg 87%
    22:00 +13°C° 0 mm 2 mps 746 mmHg 90%
    23:00 +12°C° 0 mm 2 mps 746 mmHg 93%

    28 August, Wednesday

    Time Temperature Precipitation Wind Pressure Humidity
    00:00 +12°C° 0 mm 2 mps 746 mmHg 94%
    01:00 +10°C° 0 mm 2 mps 747 mmHg 94%
    02:00 +9°C° 0 mm 2 mps 747 mmHg 95%
    03:00 +9°C° 0 mm 2 mps 747 mmHg 95%
    04:00 +8°C° 0 mm 2 mps 747 mmHg 95%
    05:00 +7°C° 0 mm 2 mps 748 mmHg 94%
    06:00 +8°C° 0 mm 2 mps 748 mmHg 84%
    07:00 +10°C° 0 mm 2 mps 748 mmHg 73%
    08:00 +11°C° 0 mm 3 mps 748 mmHg 62%
    09:00 +12°C° 0 mm 3 mps 748 mmHg 57%
    10:00 +13°C° 0 mm 3 mps 748 mmHg 51%
    11:00 +14°C° 0 mm 3 mps 749 mmHg 45%
    12:00 +16°C° 0 mm 3 mps 748 mmHg 43%
    13:00 +16°C° 0 mm 3 mps 748 mmHg 42%
    14:00 +17°C° 0 mm 3 mps 748 mmHg 41%
    15:00 +16°C° 0 mm 3 mps 748 mmHg 46%
    16:00 +16°C° 0 mm 2 mps 748 mmHg 51%
    17:00 +15°C° 0 mm 2 mps 748 mmHg 56%
    18:00 +13°C° 0 mm 2 mps 748 mmHg 62%
    19:00 +10°C° 0 mm 2 mps 748 mmHg 67%
    20:00 +9°C° 0 mm 1 mps 748 mmHg 73%
    21:00 +9°C° 0 mm 1 mps 749 mmHg 76%
    22:00 +8°C° 0 mm 1 mps 749 mmHg 78%
    23:00 +7°C° 0 mm 1 mps 749 mmHg 81%

    29 August, Thursday

    Time Temperature Precipitation Wind Pressure Humidity
    00:00 +7°C° 0 mm 1 mps 749 mmHg 82%
    01:00 +6°C° 0 mm 1 mps 749 mmHg 84%
    02:00 +6°C° 0 mm 1 mps 749 mmHg 85%
    03:00 +6°C° 0 mm 1 mps 749 mmHg 86%
    04:00 +6°C° 0 mm 1 mps 749 mmHg 86%
    05:00 +5°C° 0 mm 1 mps 750 mmHg 87%
    06:00 +7°C° 0 mm 1 mps 750 mmHg 79%
    07:00 +10°C° 0 mm 1 mps 750 mmHg 72%
    08:00 +12°C° 0 mm 2 mps 750 mmHg 64%
    09:00 +13°C° 0 mm 2 mps 750 mmHg 59%
    10:00 +15°C° 0 mm 2 mps 750 mmHg 53%
    11:00 +16°C° 0 mm 2 mps 749 mmHg 47%
    12:00 +17°C° 0 mm 3 mps 749 mmHg 49%
    13:00 +17°C° 0 mm 3 mps 749 mmHg 50%
    14:00 +18°C° 0 mm 3 mps 749 mmHg 52%
    15:00 +17°C° 0 mm 3 mps 749 mmHg 57%
    16:00 +16°C° 0 mm 2 mps 749 mmHg 62%
    17:00 +16°C° 0 mm 2 mps 749 mmHg 67%
    18:00 +14°C° 0 mm 2 mps 749 mmHg 74%
    19:00 +12°C° 0 mm 2 mps 749 mmHg 81%
    20:00 +9°C° 0 mm 2 mps 748 mmHg 88%
    21:00 +9°C° 0 mm 1 mps 749 mmHg 90%
    22:00 +9°C° 0 mm 1 mps 749 mmHg 92%
    23:00 +8°C° 0 mm 1 mps 749 mmHg 95%
    Show more